K3TLB Weather Reports


Display with metric or nautical units.
time (UTC)temp
F
wind
direction
speed
MPH
gust
MPH
rain 1hr
in
rain 24hr
in
rain mn
in
humidity
%
barometer
mb
20260509235532 60 115 0.0 0.0 0.00 0.18 0.18 84 1009.0
20260509235306 60 147 0.0 0.0 0.00 0.18 0.18 83 1009.1
20260509234531 60 136 0.0 0.0 0.00 0.18 0.18 83 1009.0
20260509234301 60 125 0.0 0.0 0.00 0.18 0.18 83 1009.1
20260509233530 60 138 0.0 0.0 0.00 0.18 0.18 82 1009.1
20260509233034 60 121 0.0 0.0 0.00 0.18 0.18 82 1009.0
20260509233028 61 153 0.0 0.0 0.00 0.18 0.18 82 1009.0
20260509232028 61 128 0.0 0.0 0.00 0.18 0.18 82 1008.9
20260509231526 61 104 0.0 0.0 0.00 0.18 0.18 82 1008.9
20260509231026 61 126 0.0 0.0 0.00 0.18 0.18 82 1008.8
20260509230527 61 113 0.0 5.0 0.00 0.18 0.18 81 1008.9
20260509230258 61 117 0.0 5.0 0.00 0.18 0.18 81 1009.0
20260509225521 61 121 1.0 9.0 0.00 0.18 0.18 81 1008.9
20260509225020 62 138 1.0 9.0 0.00 0.18 0.18 80 1009.0
20260509224520 62 124 0.0 0.0 0.00 0.18 0.18 80 1009.0
20260509224250 62 116 2.0 9.0 0.00 0.18 0.18 80 1008.8
20260509223519 62 123 3.0 9.0 0.00 0.18 0.18 80 1008.8
20260509223019 62 148 1.0 9.0 0.00 0.18 0.18 79 1008.8
20260509222512 62 209 0.0 6.0 0.00 0.18 0.18 79 1009.0
20260509222243 62 200 0.0 6.0 0.00 0.18 0.18 80 1008.9
20260509221513 62 167 2.0 9.0 0.00 0.18 0.18 80 1008.8
20260509221013 62 175 2.0 9.0 0.00 0.18 0.18 79 1008.8
20260509220513 62 166 1.0 8.0 0.00 0.18 0.18 80 1008.8
20260509220013 62 215 1.0 8.0 0.00 0.18 0.18 79 1008.9
20260509215508 62 136 0.0 3.0 0.00 0.18 0.18 80 1009.0
20260509215007 62 207 0.0 2.0 0.00 0.18 0.18 81 1009.0
20260509214508 61 203 0.0 0.0 0.00 0.18 0.18 83 1009.1
20260509214007 61 159 0.0 0.0 0.00 0.18 0.18 84 1009.0
20260509213506 61 110 0.0 0.0 0.00 0.18 0.18 85 1009.2
20260509213006 60 97 0.0 0.0 0.00 0.18 0.18 87 1009.2
20260509213001 60 115 0.0 0.0 0.00 0.18 0.18 86 1009.4
20260509211959 60 120 0.0 0.0 0.00 0.18 0.18 87 1009.3
20260509211501 60 130 0.0 0.0 0.00 0.18 0.18 87 1009.2
20260509210959 60 87 0.0 0.0 0.00 0.18 0.18 88 1009.4
20260509210459 59 98 0.0 0.0 0.00 0.18 0.18 88 1009.5
20260509205958 59 59 0.0 0.0 0.00 0.18 0.18 89 1009.6
20260509205453 58 350 0.0 0.0 0.00 0.18 0.18 89 1009.8
20260509205224 58 350 0.0 0.0 0.00 0.18 0.18 90 1009.8
20260509204449 58 350 0.0 0.0 0.00 0.18 0.18 90 1009.8
20260509203947 58 329 0.0 0.0 0.00 0.18 0.18 90 1009.9
20260509203446 58 327 0.0 0.0 0.00 0.18 0.18 89 1009.9
20260509202944 58 0 0.0 0.0 0.00 0.18 0.18 89 1010.0
20260509202442 58 27 0.0 0.0 0.00 0.18 0.18 89 1009.8
20260509201942 58 51 0.0 0.0 0.00 0.18 0.18 89 1009.6
20260509201714 58 46 0.0 0.0 0.00 0.18 0.18 89 1009.4
20260509200942 58 68 0.0 0.0 0.00 0.18 0.18 89 1009.4
20260509200442 58 71 0.0 0.0 0.00 0.18 0.18 87 1009.7
20260509195936 58 74 0.0 0.0 0.00 0.18 0.18 86 1009.9
20260509195703 58 109 0.0 0.0 0.00 0.18 0.18 86 1010.0
20260509195202 58 115 0.0 0.0 0.00 0.18 0.18 86 1010.0
20260509194430 59 171 0.0 0.0 0.00 0.18 0.18 86 1009.9
20260509193930 58 171 0.0 0.0 0.00 0.18 0.18 86 1009.9
20260509193422 58 171 0.0 0.0 0.00 0.18 0.18 86 1009.9
20260509192920 59 169 0.0 0.0 0.00 0.18 0.18 86 1010.0
20260509192419 59 101 0.0 0.0 0.00 0.18 0.18 87 1010.1
20260509191917 59 83 0.0 0.0 0.00 0.18 0.18 90 1010.1
20260509191418 58 101 0.0 3.0 0.00 0.18 0.18 90 1010.3
20260509190910 58 182 0.0 3.0 0.00 0.18 0.18 91 1010.5
20260509190411 58 187 0.0 0.0 0.00 0.18 0.18 92 1010.6
20260509185911 57 134 0.0 0.0 0.00 0.18 0.18 92 1010.6
20260509185411 57 115 0.0 6.0 0.00 0.18 0.18 92 1010.8
20260509184911 57 161 0.0 6.0 0.00 0.18 0.18 92 1010.8
20260509184642 57 160 0.0 6.0 0.00 0.18 0.18 92 1010.6
20260509183909 57 131 0.0 6.0 0.00 0.18 0.18 94 1010.4
20260509183408 56 181 1.0 8.0 0.00 0.18 0.18 94 1010.4
20260509182909 56 168 1.0 8.0 0.00 0.18 0.18 94 1010.4
20260509182407 56 104 0.0 0.0 0.00 0.18 0.18 95 1010.4
20260509181905 56 73 0.0 0.0 0.00 0.18 0.18 96 1010.4
20260509181405 55 87 0.0 0.0 0.00 0.18 0.18 96 1010.4
20260509180902 55 119 0.0 0.0 0.00 0.18 0.18 96 1010.5
20260509180631 55 111 0.0 0.0 0.00 0.18 0.18 96 1010.5
20260509175859 55 96 0.0 0.0 0.00 0.18 0.18 96 1010.6
20260509175630 54 212 0.0 0.0 0.00 0.18 0.18 95 1010.8
20260509174859 55 240 0.0 0.0 0.00 0.18 0.18 96 1010.8
20260509174400 54 221 0.0 0.0 0.00 0.18 0.18 97 1010.9
20260509173852 54 159 0.0 0.0 0.00 0.18 0.18 96 1010.9
20260509173351 54 159 0.0 0.0 0.01 0.18 0.18 97 1011.0
20260509173119 54 159 0.0 0.0 0.01 0.18 0.18 96 1010.9
20260509172347 54 119 0.0 0.0 0.01 0.18 0.18 96 1011.1
20260509171848 54 125 0.0 0.0 0.01 0.18 0.18 96 1011.2
20260509171345 53 139 0.0 0.0 0.02 0.18 0.18 96 1011.2
20260509171341 54 127 0.0 0.0 0.02 0.18 0.18 97 1011.2
20260509170343 53 126 0.0 0.0 0.03 0.18 0.18 97 1011.3
20260509165843 53 134 0.0 0.0 0.03 0.18 0.18 96 1011.1
20260509165340 53 150 0.0 0.0 0.04 0.18 0.18 96 1011.0
20260509164841 53 143 0.0 0.0 0.06 0.18 0.18 96 1011.0
20260509164338 53 120 0.0 0.0 0.07 0.18 0.18 96 1010.9
20260509163838 53 112 0.0 0.0 0.08 0.18 0.18 95 1010.8
20260509163338 53 132 0.0 0.0 0.09 0.17 0.17 96 1010.8
20260509162836 53 148 0.0 0.0 0.10 0.17 0.17 96 1010.6
20260509162335 53 78 0.0 0.0 0.12 0.17 0.17 95 1010.5
20260509162105 53 52 0.0 0.0 0.13 0.17 0.17 95 1010.4
20260509161332 53 0 0.0 0.0 0.12 0.16 0.16 95 1010.5
20260509160831 53 37 0.0 0.0 0.13 0.16 0.16 95 1010.8
20260509160601 53 5 0.0 0.0 0.12 0.15 0.15 94 1010.8
20260509155329 53 229 0.0 0.0 0.12 0.14 0.14 94 1011.4
20260509154830 53 197 0.0 0.0 0.11 0.12 0.13 94 1011.6
20260509154322 53 197 0.0 0.0 0.11 0.11 0.11 94 1011.6
20260509153819 53 203 0.0 0.0 0.10 0.10 0.10 93 1011.9
20260509153318 53 224 0.0 5.0 0.08 0.08 0.08 93 1012.0
20260509152817 53 223 0.0 5.0 0.06 0.06 0.07 93 1012.0
20260509152318 54 179 0.0 0.0 0.05 0.05 0.05 92 1012.0
20260509151809 54 163 0.0 0.0 0.04 0.04 0.04 92 1011.8
20260509151315 54 163 0.0 0.0 0.03 0.03 0.03 92 1011.8
20260509151310 54 125 0.0 0.0 0.04 0.04 0.04 92 1011.7
20260509150541 54 158 0.0 0.0 0.03 0.03 0.03 91 1011.8
20260509145810 55 145 0.0 0.0 0.02 0.02 0.02 91 1011.6
20260509145310 55 124 0.0 0.0 0.02 0.02 0.02 91 1011.6
20260509144804 55 157 0.0 0.0 0.01 0.01 0.01 91 1011.6
20260509144302 55 194 0.0 0.0 0.00 0.00 0.00 90 1011.6
20260509143801 54 211 0.0 0.0 0.00 0.00 0.00 90 1011.5
20260509143259 54 208 0.0 0.0 0.00 0.00 0.00 90 1011.5
20260509143029 54 225 0.0 0.0 0.00 0.00 0.00 90 1011.4
20260509142256 54 198 0.0 0.0 0.00 0.00 0.00 91 1011.4
20260509141755 54 182 0.0 0.0 0.00 0.00 0.00 91 1011.4
20260509141257 54 136 0.0 0.0 0.00 0.00 0.00 91 1011.3
20260509140755 53 136 0.0 0.0 0.00 0.00 0.00 91 1011.3
20260509140252 53 136 0.0 0.0 0.00 0.00 0.00 91 1011.2
20260509135753 53 140 0.0 0.0 0.00 0.00 0.00 91 1011.3
20260509135519 53 133 0.0 0.0 0.00 0.00 0.00 91 1011.2
20260509134746 53 131 0.0 0.0 0.00 0.00 0.00 91 1011.1
20260509134245 53 132 0.0 0.0 0.00 0.00 0.00 91 1011.1
20260509133744 53 132 0.0 0.0 0.00 0.00 0.00 91 1011.2
20260509133241 53 121 0.0 0.0 0.00 0.00 0.00 90 1011.2
20260509133011 53 101 0.0 0.0 0.00 0.00 0.00 90 1011.1
20260509132240 53 85 0.0 0.0 0.00 0.00 0.00 91 1011.1
20260509131741 53 119 0.0 0.0 0.00 0.00 0.00 91 1011.2
20260509131235 53 67 0.0 0.0 0.00 0.00 0.00 91 1010.6
20260509131007 53 42 0.0 0.0 0.00 0.00 0.00 90 1010.5
20260509130235 52 62 0.0 0.0 0.00 0.00 0.00 90 1010.8
20260509125735 53 102 0.0 0.0 0.00 0.00 0.00 89 1010.9
20260509125507 53 41 0.0 0.0 0.00 0.00 0.00 89 1010.9
20260509125007 53 43 0.0 0.0 0.00 0.00 0.00 88 1010.6
20260509124231 53 25 0.0 0.0 0.00 0.00 0.00 89 1010.9
20260509123732 52 19 0.0 0.0 0.00 0.00 0.00 89 1011.0
20260509123233 52 298 0.0 0.0 0.00 0.00 0.00 89 1011.1
20260509122732 52 333 0.0 0.0 0.00 0.00 0.00 90 1011.0
20260509122231 52 333 0.0 0.0 0.00 0.00 0.00 90 1011.0
20260509121733 52 10 0.0 0.0 0.00 0.00 0.00 89 1010.8
20260509121228 52 134 0.0 0.0 0.00 0.00 0.00 89 1011.0
20260509121000 52 59 0.0 0.0 0.00 0.00 0.00 89 1010.6
20260509120459 52 165 0.0 0.0 0.00 0.00 0.00 89 1010.9
20260509115959 51 355 0.0 0.0 0.00 0.00 0.00 89 1010.6
20260509115227 51 339 0.0 0.0 0.00 0.00 0.00 89 1010.8
20260509114729 51 26 0.0 0.0 0.00 0.00 0.00 89 1010.4
20260509114223 51 37 0.0 0.0 0.00 0.00 0.00 89 1010.4
20260509113722 51 39 0.0 0.0 0.00 0.00 0.00 90 1010.6
20260509113223 51 61 0.0 0.0 0.00 0.00 0.00 91 1010.5
20260509112719 51 61 0.0 0.0 0.00 0.00 0.00 90 1010.5
20260509112218 51 67 0.0 0.0 0.00 0.00 0.00 91 1010.6
20260509111716 51 67 0.0 0.0 0.00 0.00 0.00 91 1010.6
20260509111216 50 72 0.0 0.0 0.00 0.00 0.00 91 1010.4
20260509110716 50 76 0.0 0.0 0.00 0.00 0.00 91 1010.3
20260509110216 50 98 0.0 0.0 0.00 0.00 0.00 91 1010.5
20260509105711 50 83 0.0 0.0 0.00 0.00 0.00 91 1010.4
20260509105212 50 82 0.0 0.0 0.00 0.00 0.00 91 1010.4
20260509104712 50 40 0.0 0.0 0.00 0.00 0.00 91 1010.4
20260509104213 51 92 0.0 0.0 0.00 0.00 0.00 90 1010.5
20260509103710 51 64 0.0 0.0 0.00 0.00 0.00 90 1010.2
20260509103210 51 0 0.0 0.0 0.00 0.00 0.00 89 1010.3
20260509102708 51 59 0.0 0.0 0.00 0.00 0.00 88 1010.1
20260509102435 51 346 0.0 0.0 0.00 0.00 0.00 88 1010.3
20260509101704 51 14 0.0 0.0 0.00 0.00 0.00 87 1010.2
20260509101204 51 44 0.0 0.0 0.00 0.00 0.00 87 1010.1
20260509100704 51 14 0.0 0.0 0.00 0.00 0.00 87 1010.1
20260509100437 51 27 0.0 0.0 0.00 0.00 0.00 86 1010.2
20260509095701 51 5 0.0 0.0 0.00 0.00 0.00 86 1010.0
20260509095201 51 355 0.0 0.0 0.00 0.00 0.00 86 1010.0
20260509094659 51 32 0.0 0.0 0.00 0.00 0.00 87 1010.0
20260509094158 50 37 0.0 0.0 0.00 0.00 0.00 88 1010.1
20260509093659 50 26 0.0 0.0 0.00 0.00 0.00 89 1010.3
20260509093157 50 36 0.0 0.0 0.00 0.00 0.00 90 1010.4
20260509092652 50 63 0.0 0.0 0.00 0.00 0.00 89 1010.5
20260509092150 50 63 0.0 0.0 0.00 0.00 0.00 88 1010.3
20260509091648 50 57 0.0 0.0 0.00 0.00 0.00 88 1010.2
20260509091147 50 47 0.0 0.0 0.00 0.00 0.00 88 1010.2
20260509090645 50 65 0.0 0.0 0.00 0.00 0.00 88 1010.2
20260509090143 51 71 0.0 0.0 0.00 0.00 0.00 88 1010.4
20260509085642 50 66 0.0 0.0 0.00 0.00 0.00 88 1010.3
20260509085141 50 53 0.0 0.0 0.00 0.00 0.00 88 1010.4
20260509084913 51 49 0.0 0.0 0.00 0.00 0.00 88 1010.4
20260509084141 51 81 0.0 0.0 0.00 0.00 0.00 87 1010.5
20260509083639 51 72 0.0 0.0 0.00 0.00 0.00 87 1010.4
20260509083134 51 57 0.0 0.0 0.00 0.00 0.00 87 1010.4
20260509082633 51 59 0.0 0.0 0.00 0.00 0.00 87 1010.5
20260509082133 51 90 0.0 0.0 0.00 0.00 0.00 87 1010.5
20260509081635 51 79 0.0 0.0 0.00 0.00 0.00 87 1010.4
20260509081134 51 76 0.0 0.0 0.00 0.00 0.00 86 1010.6
20260509080635 51 67 0.0 0.0 0.00 0.00 0.00 86 1010.8
20260509080128 51 51 0.0 0.0 0.00 0.00 0.00 87 1010.8
20260509075628 51 44 0.0 0.0 0.00 0.00 0.00 87 1010.9
20260509075128 50 63 0.0 0.0 0.00 0.00 0.00 88 1010.9
20260509074628 50 72 0.0 0.0 0.00 0.00 0.00 87 1010.9
20260509074128 50 73 0.0 0.0 0.00 0.00 0.00 87 1010.6
20260509073627 50 71 0.0 0.0 0.00 0.00 0.00 87 1010.8
20260509073124 50 63 0.0 0.0 0.00 0.00 0.00 87 1010.9
20260509072623 50 65 0.0 0.0 0.00 0.00 0.00 86 1011.1
20260509072124 50 80 0.0 0.0 0.00 0.00 0.00 85 1011.1
20260509071624 50 76 0.0 0.0 0.00 0.00 0.00 85 1011.0
20260509071122 51 78 0.0 0.0 0.00 0.00 0.00 84 1011.1
20260509070622 51 80 0.0 0.0 0.00 0.00 0.00 84 1011.0
20260509070120 51 59 0.0 0.0 0.00 0.00 0.00 82 1011.1
20260509065618 52 76 0.0 0.0 0.00 0.00 0.00 81 1011.1
20260509065117 52 29 0.0 0.0 0.00 0.00 0.00 81 1011.1
20260509064618 53 28 0.0 0.0 0.00 0.00 0.00 81 1011.0
20260509064116 53 42 0.0 0.0 0.00 0.00 0.00 81 1011.2
20260509063848 53 55 0.0 0.0 0.00 0.00 0.00 81 1011.2
20260509063110 53 23 0.0 0.0 0.00 0.00 0.00 81 1011.3
20260509062610 53 35 0.0 0.0 0.00 0.00 0.00 81 1011.3
20260509062109 53 12 0.0 0.0 0.00 0.00 0.00 81 1011.2
20260509061610 53 9 0.0 0.0 0.00 0.00 0.00 81 1011.3
20260509061109 53 40 0.0 0.0 0.00 0.00 0.00 81 1011.2
20260509060842 53 31 0.0 0.0 0.00 0.00 0.00 82 1011.3
20260509060106 53 5 0.0 0.0 0.00 0.00 0.00 82 1011.5
20260509055604 53 5 0.0 5.0 0.00 0.00 0.00 82 1011.5
20260509055104 53 26 0.0 5.0 0.00 0.00 0.00 84 1011.4
20260509054603 53 40 0.0 0.0 0.00 0.00 0.00 83 1011.3
20260509054335 52 13 0.0 0.0 0.00 0.00 0.00 83 1011.5
20260509053603 52 20 0.0 0.0 0.00 0.00 0.00 85 1011.5
20260509053059 52 46 0.0 0.0 0.00 0.00 0.00 86 1011.5
20260509052830 52 56 0.0 0.0 0.00 0.00 0.00 86 1011.5
20260509052059 52 57 0.0 0.0 0.00 0.00 0.00 86 1011.6
20260509051604 52 55 0.0 0.0 0.00 0.00 0.00 85 1011.8
20260509051600 52 61 0.0 0.0 0.00 0.00 0.00 85 1011.8
20260509050559 52 51 0.0 0.0 0.00 0.00 0.00 85 1011.8
20260509050052 52 20 0.0 0.0 0.00 0.00 0.00 84 1011.9
20260509045550 52 15 0.0 0.0 0.00 0.00 0.00 84 1011.9
20260509045048 52 27 0.0 0.0 0.00 0.00 0.00 85 1011.7
20260509044546 52 76 0.0 0.0 0.00 0.00 0.00 85 1011.8
20260509044047 52 98 0.0 0.0 0.00 0.00 0.00 83 1011.7
20260509043540 53 74 0.0 0.0 0.00 0.00 0.00 83 1011.7
20260509043038 53 95 0.0 0.0 0.00 0.00 0.00 83 1011.8
20260509042535 53 95 0.0 0.0 0.00 0.00 0.00 81 1011.6
20260509042034 53 44 0.0 0.0 0.00 0.00 0.00 80 1011.6
20260509041535 54 355 0.0 0.0 0.00 0.00 0.00 80 1011.8
20260509041027 54 36 0.0 0.0 0.00 0.00 0.00 79 1011.8
20260509040758 54 18 0.0 0.0 0.00 0.00 0.00 79 1011.8
20260509040027 54 5 0.0 0.0 0.00 0.00 0.00 79 1011.9
20260509035526 54 340 0.0 0.0 0.00 0.00 0.00 77 1012.0
20260509035025 53 88 0.0 0.0 0.00 0.00 0.00 80 1012.1
20260509034525 53 115 0.0 0.0 0.00 0.00 0.00 82 1012.1
20260509034256 53 115 0.0 0.0 0.00 0.00 0.00 82 1012.2
20260509033524 53 144 0.0 0.0 0.00 0.00 0.00 82 1012.3
20260509033022 54 67 0.0 0.0 0.00 0.00 0.00 82 1012.2
20260509032521 54 67 0.0 0.0 0.00 0.00 0.00 80 1012.1
20260509032022 54 50 0.0 0.0 0.00 0.00 0.00 80 1012.2
20260509031520 54 72 0.0 0.0 0.00 0.00 0.00 80 1012.2
20260509031019 54 65 0.0 5.0 0.00 0.00 0.00 78 1012.4
20260509030516 54 106 0.0 5.0 0.00 0.00 0.00 78 1012.4
20260509030015 53 124 1.0 8.0 0.00 0.00 0.00 79 1012.3
20260509025514 53 126 1.0 8.0 0.00 0.00 0.00 81 1012.3
20260509025014 52 165 0.0 5.0 0.00 0.00 0.00 84 1012.3
20260509024513 52 178 0.0 0.0 0.00 0.00 0.00 85 1012.1
20260509024015 52 69 0.0 0.0 0.00 0.00 0.00 85 1011.8
20260509023508 52 65 0.0 0.0 0.00 0.00 0.00 82 1011.6
20260509023005 52 77 0.0 0.0 0.00 0.00 0.00 85 1011.9
20260509022504 53 77 0.0 0.0 0.00 0.00 0.00 84 1011.9
20260509022001 53 67 0.0 0.0 0.00 0.00 0.00 84 1011.9
20260509021500 53 76 0.0 0.0 0.00 0.00 0.00 83 1011.6
20260509020954 53 65 0.0 0.0 0.00 0.00 0.00 83 1011.8
20260509020455 53 56 0.0 0.0 0.00 0.00 0.00 82 1011.9
20260509015955 54 56 0.0 0.0 0.00 0.00 0.00 83 1011.9
20260509015723 54 0 0.0 0.0 0.00 0.00 0.00 82 1011.9
20260509014952 54 303 0.0 0.0 0.00 0.00 0.00 81 1011.9
20260509014453 54 298 0.0 0.0 0.00 0.00 0.00 76 1012.0
20260509013953 54 298 0.0 0.0 0.00 0.00 0.00 79 1012.0
20260509013449 54 298 0.0 0.0 0.00 0.00 0.00 80 1012.0
20260509012949 54 298 0.0 0.0 0.00 0.00 0.00 79 1011.9
20260509012450 54 298 0.0 0.0 0.00 0.00 0.00 78 1011.8
20260509011948 54 298 0.0 0.0 0.00 0.00 0.00 79 1011.8
20260509011450 54 298 0.0 0.0 0.00 0.00 0.00 78 1011.7
20260509011220 55 298 0.0 0.0 0.00 0.00 0.00 76 1011.7
20260509010444 54 269 0.0 0.0 0.00 0.00 0.00 74 1011.8
20260509005945 54 268 0.0 0.0 0.00 0.00 0.00 75 1011.6
20260509005445 55 268 0.0 0.0 0.00 0.00 0.00 76 1011.7
20260509004945 55 312 0.0 0.0 0.00 0.00 0.00 74 1011.6
20260509004445 55 312 0.0 0.0 0.00 0.00 0.00 73 1011.6
20260509003946 55 312 0.0 0.0 0.00 0.00 0.00 72 1011.6
20260509003440 55 312 0.0 0.0 0.00 0.00 0.00 72 1011.6
20260509002941 55 312 0.0 0.0 0.00 0.00 0.00 71 1011.7
20260509002441 56 312 0.0 0.0 0.00 0.00 0.00 72 1011.6
20260509001941 56 312 0.0 0.0 0.00 0.00 0.00 71 1011.4
20260509001441 56 312 0.0 0.0 0.00 0.00 0.00 71 1011.4
20260509000941 56 312 0.0 0.0 0.00 0.00 0.00 68 1011.4
20260509000440 57 306 0.0 0.0 0.00 0.00 0.00 67 1011.3
20260509000212 57 281 0.0 0.0 0.00 0.00 0.00 67 1011.3